Location: Diebersbach
(48.5163°N, 8.0558°E)
Time: 08:34:51
(UTC+00:00)

Cosmos 1943 Rocket - Pass Details

Date: 20 June 2021
Orbit: 813 x 843 km, 71.0° (Epoch: 01 August)

Event Time Altitude Azimuth Distance (km) Brightness Sun altitude
Rises 01:22:21 0° 314° (NW) 3,346 5.5 -13.7°
Reaches altitude 10° 01:26:48 10° 280° (W) 2,410 4.4 -13.4°
Maximum altitude 01:28:14 11° 265° (W) 2,337 4.2 -13.3°
Drops below altitude 10° 01:29:40 10° 250° (WSW) 2,408 4.1 -13.2°
Enters shadow 01:29:45 10° 249° (WSW) 2,416 4.1 -13.2°
